THOR ABLESTAR DEB, 246

Orbit data source: Space-Track

THOR ABLESTAR DEB, 246 is space debris in LEO originally from a launch on Thu, 29 Jun 1961 UTC launched from the Air Force Eastern Test Range (AFETR). Debris objects in space refer to the collection of defunct objects orbiting the Earth. Examples of debris include non-operational satellites, rocket bodies, and fragments generated from explosions, collisions, or faulty payload assembly.

Loading next visibility...
THOR ABLESTAR DEB details
Identifier
246, 1961-015CB
Orbit
LEO
Last TLE update13 hours ago
Origin
Flag of USUSAF SSD (US)
ManufacturerUnknown
MissionSpacecraft
Bus & MotorUnknown
MassUnknown
Launch date (UTC)
1961-06-29 (64 years ago)
Launch vehicleUnknown
Launch site
Air Force Eastern Test Range (AFETR)
Object type
Payload
Rocket body
Debris
Shape & HBRUnknown
Radar Cross SectionMedium (>0.1 m² and <1 m²)

Expand to show TLE details & history

TLE from 13 hours ago
0 THOR ABLESTAR DEB
1 00246U 61015CB  25015.39291851  .00000020  00000-0  81345-4 0  9993
2 00246  66.8703   2.6937 0061444 143.0747 217.4584 13.86057337552103
Epoch: 2025-01-15T09:25Z
Definitive object data (Epoch: 2025-01-15T09:25:48.159Z)
Latitude-0.00003°
Longitude106.15712°
Altitude980.368 km
Speed7.344 km/s
True Right ascension00h 10m 46s
True Declination0° 00' 00"
Sunlit
Object was in daylight at TLE epoch
Visualization TLE readout
Latitude66.93693°
Longitude-168.75043°
Altitude926.689 km
Speed7.409 km/s
Apparent Right ascension08h 59m 11s
Apparent Declination22° 22' 31"
Sunlit
Object is in full shadow
Visualization observer readout
Local Sidereal Time22:40:39
Azimuth25.564° NE
Elevation-23.366°
Doppler factor1
Orbital elements
Apogee altitude985.84 km
Perigee altitude895.899 km
Semi-major axis7,319.006 km
Eccentricity0.0061444
Inclination66.8703°
RAAN2.6937°
Arg. of periapsis143.0747°
True anomaly217.03278°
Mean anomaly217.4584°
Eccentric anomaly217.24533°
Mean motion3.46629 °/min
BSTAR0.000081345
Orbital period103.86 mins
Loading maneuver chart data...

THOR ABLESTAR DEB Visibility forecast

Observer location: undefined°, undefined

Span
Click to sort rows by Start time (UTC) header in descending order
Start Az.
Max El. time (UTC)
Max El. Az.
Max El.
End time (UTC)
End Az.
9 mins2025-01-15 23:23:43.326Z154.527° SSE2025-01-15 23:28:43.326Z99.106° ESE21.46°2025-01-15 23:32:43.326Z57.387° ENE
10 mins2025-01-16 01:09:43.326Z227.678° WSW2025-01-16 01:14:43.326Z308.17° NW39.971°2025-01-16 01:19:43.326Z19.106° NNE
8 mins2025-01-16 08:29:43.326Z3.81° NNE2025-01-16 08:32:43.326Z42.058° NE23.015°2025-01-16 08:37:43.326Z101.181° ESE
10 mins2025-01-16 10:15:43.326Z319.454° NNW2025-01-16 10:19:43.326Z265.84° W39.317°2025-01-16 10:25:43.326Z170.091° S
|